Weather History for Walhalla, ND

Change the Weather History Date:

Wednesday, November 21, 2012

  Actual Average (KGAF) Record (KGAF)
Temperature  
Mean Temperature 36 °F -  
Max Temperature 39 °F 29 °F 51 °F (1960)
Min Temperature 32 °F 15 °F -14 °F (1978)
Degree Days  
Heating Degree Days 30    
Moisture  
Dew Point 34 °F    
Average Humidity 98    
Maximum Humidity 100    
Minimum Humidity 87    
Precipitation  
Precipitation 0.00 in - - ()
Sea Level Pressure  
Sea Level Pressure 29.77 in    
Wind  
Wind Speed 6 mph (NNW)    
Max Wind Speed 16 mph    
Max Gust Speed 21 mph    
Visibility 9 miles    
Events      
Averages and records for this station are not official NWS values.
T = Trace of Precipitation, MM = Missing Value Source: NWS Daily Summary

Daily Weather History Graph

Daily Weather History Graph

Search for Another Location

Airport:

Trip Planner

Search our weather history database for the weather conditions in past years. The results will help you decide how hot, cold, wet, or windy it might be!

Date:

Astronomy

Nov. 21, 2012 Rise Set
Actual Time 7:50 AM CST 4:43 PM CST
Civil Twilight 7:15 AM CST 5:19 PM CST
Nautical Twilight 6:36 AM CST 5:58 PM CST
Astronomical Twilight 5:58 AM CST 6:35 PM CST
Moon 1:29 PM CST (11/21) 12:39 AM CST (11/21)
Length of Visible Light 10h 03m
Length of Day
8h 53m
First Quarter, 62% of the Moon is Illuminated
Nov 21
First Quarter
Nov 28
Full
Dec 6
Last Quarter
Dec 13
New
Dec 19
First Quarter

Hourly Weather History & Observations

Time (CST) Temp. Windchill Dew Point Humidity Pressure Visibility Wind Dir Wind Speed Gust Speed Precip Events Conditions
12:15 AM 37.4 °F 32.1 °F 35.6 °F 93% 29.81 in 10.0 mi NNW 6.9 mph - N/A   Overcast
12:35 AM 39.2 °F 32.5 °F 35.6 °F 87% 29.82 in 10.0 mi West 10.4 mph - N/A   Mostly Cloudy
12:55 AM 39.2 °F 37.0 °F 35.6 °F 87% 29.83 in 10.0 mi WNW 3.5 mph - N/A   Overcast
1:15 AM 37.4 °F 33.8 °F 35.6 °F 93% 29.84 in 10.0 mi NNE 4.6 mph - N/A   Mostly Cloudy
1:35 AM 37.4 °F - 35.6 °F 93% 29.83 in 10.0 mi Calm Calm - N/A   Mostly Cloudy
1:55 AM 35.6 °F - 35.6 °F 100% 29.84 in 10.0 mi Calm Calm - N/A   Scattered Clouds
2:15 AM 37.4 °F 33.8 °F 35.6 °F 93% 29.85 in 10.0 mi NW 4.6 mph - N/A   Partly Cloudy
2:35 AM 35.6 °F 31.7 °F 35.6 °F 100% 29.85 in 10.0 mi West 4.6 mph - N/A   Clear
2:55 AM 35.6 °F 31.7 °F 35.6 °F 100% 29.85 in 10.0 mi West 4.6 mph - N/A   Clear
3:15 AM 37.4 °F 32.8 °F 35.6 °F 93% 29.85 in 10.0 mi West 5.8 mph - N/A   Clear
3:35 AM 37.4 °F 32.8 °F 35.6 °F 93% 29.85 in 10.0 mi WNW 5.8 mph - N/A   Clear
3:55 AM 37.4 °F 33.8 °F 35.6 °F 93% 29.85 in 10.0 mi NW 4.6 mph - N/A   Clear
4:15 AM 37.4 °F 34.9 °F 35.6 °F 93% 29.84 in 10.0 mi NW 3.5 mph - N/A   Clear
4:35 AM 37.4 °F 33.8 °F 35.6 °F 93% 29.85 in 10.0 mi West 4.6 mph - N/A   Clear
4:55 AM 37.4 °F 32.8 °F 35.6 °F 93% 29.86 in 10.0 mi NW 5.8 mph - N/A   Clear
5:15 AM 37.4 °F 32.8 °F 35.6 °F 93% 29.87 in 10.0 mi NW 5.8 mph - N/A   Clear
5:35 AM 37.4 °F 32.8 °F 35.6 °F 93% 29.87 in 10.0 mi NW 5.8 mph - N/A   Clear
5:55 AM 35.6 °F 31.7 °F 35.6 °F 100% 29.87 in 10.0 mi NW 4.6 mph - N/A   Clear
6:15 AM 35.6 °F 32.8 °F 35.6 °F 100% 29.86 in 10.0 mi NW 3.5 mph - N/A   Clear
6:35 AM 35.6 °F 31.7 °F 35.6 °F 100% 29.86 in 10.0 mi NW 4.6 mph - N/A   Clear
6:55 AM 35.6 °F 30.7 °F 35.6 °F 100% 29.86 in 10.0 mi NNW 5.8 mph - N/A   Clear
7:15 AM 35.6 °F 29.2 °F 35.6 °F 100% 29.86 in 10.0 mi North 8.1 mph - N/A   Clear
7:35 AM 35.6 °F 28.6 °F 35.6 °F 100% 29.87 in 10.0 mi North 9.2 mph - N/A   Clear
7:55 AM 35.6 °F 28.6 °F 35.6 °F 100% 29.87 in 10.0 mi North 9.2 mph - N/A   Clear
8:15 AM 33.8 °F 28.6 °F 33.8 °F 100% 29.88 in 10.0 mi NNW 5.8 mph - N/A   Clear
8:35 AM 33.8 °F 27.7 °F 33.8 °F 100% 29.87 in 10.0 mi North 6.9 mph - N/A   Partly Cloudy
8:55 AM 35.6 °F 28.6 °F 35.6 °F 100% 29.88 in 10.0 mi North 9.2 mph - N/A   Partly Cloudy
9:15 AM 33.8 °F 27.7 °F 33.8 °F 100% 29.88 in 10.0 mi North 6.9 mph - N/A   Clear
9:35 AM 35.6 °F 29.9 °F 35.6 °F 100% 29.88 in 10.0 mi North 6.9 mph - N/A   Clear
9:55 AM 35.6 °F 29.2 °F 33.8 °F 93% 29.87 in 10.0 mi NE 8.1 mph - N/A   Clear
10:15 AM 35.6 °F 29.9 °F 33.8 °F 93% 29.87 in 10.0 mi NE 6.9 mph - N/A   Clear
10:35 AM 35.6 °F 29.9 °F 33.8 °F 93% 29.86 in 10.0 mi NE 6.9 mph - N/A   Clear
10:55 AM 35.6 °F 31.7 °F 33.8 °F 93% 29.86 in 10.0 mi NNE 4.6 mph - N/A   Clear
11:15 AM 35.6 °F 32.8 °F 33.8 °F 93% 29.85 in 10.0 mi East 3.5 mph - N/A   Partly Cloudy
11:35 AM 33.8 °F 30.8 °F 33.8 °F 100% 29.84 in 10.0 mi ENE 3.5 mph - N/A   Mostly Cloudy
11:55 AM 35.6 °F - 33.8 °F 93% 29.82 in 10.0 mi Calm Calm - N/A   Mostly Cloudy
12:15 PM 35.6 °F 31.7 °F 33.8 °F 93% 29.81 in 10.0 mi North 4.6 mph - N/A   Scattered Clouds
12:35 PM 33.8 °F 28.6 °F 33.8 °F 100% 29.80 in 10.0 mi NNE 5.8 mph - N/A   Clear
12:55 PM 35.6 °F 29.9 °F 35.6 °F 100% 29.79 in 10.0 mi NNE 6.9 mph - N/A   Clear
1:15 PM 33.8 °F 27.0 °F 33.8 °F 100% 29.79 in 10.0 mi NNE 8.1 mph - N/A   Clear
1:35 PM 33.8 °F 27.7 °F 33.8 °F 100% 29.78 in 10.0 mi NNE 6.9 mph - N/A   Clear
1:55 PM 32.0 °F 27.5 °F 32.0 °F 100% 29.77 in 10.0 mi NNE 4.6 mph - N/A   Scattered Clouds
2:15 PM 32.0 °F 26.4 °F 32.0 °F 100% 29.76 in 10.0 mi NNE 5.8 mph - N/A   Scattered Clouds
2:35 PM 32.0 °F 25.6 °F 32.0 °F 100% 29.74 in 10.0 mi NE 6.9 mph - N/A   Partly Cloudy
2:55 PM 32.0 °F 25.6 °F 32.0 °F 100% 29.73 in 10.0 mi NNE 6.9 mph - N/A   Scattered Clouds
3:15 PM 32.0 °F 27.5 °F 32.0 °F 100% 29.71 in 10.0 mi NE 4.6 mph - N/A   Mostly Cloudy
3:35 PM 32.0 °F 26.4 °F 32.0 °F 100% 29.71 in 10.0 mi NNE 5.8 mph - N/A   Scattered Clouds
3:55 PM 32.0 °F 26.4 °F 32.0 °F 100% 29.71 in 10.0 mi NNE 5.8 mph - N/A   Scattered Clouds
4:15 PM 32.0 °F 26.4 °F 32.0 °F 100% 29.70 in 10.0 mi NNE 5.8 mph - N/A   Partly Cloudy
4:35 PM 32.0 °F 27.5 °F 32.0 °F 100% 29.69 in 10.0 mi NNE 4.6 mph - N/A   Mostly Cloudy
4:55 PM 32.0 °F 25.6 °F 32.0 °F 100% 29.69 in 10.0 mi North 6.9 mph - N/A   Overcast
5:15 PM 32.0 °F - 32.0 °F 100% 29.69 in 10.0 mi Calm Calm - N/A   Overcast
5:35 PM 32.0 °F - 32.0 °F 100% 29.69 in 10.0 mi Calm Calm - N/A   Overcast
5:55 PM 32.0 °F - 32.0 °F 100% 29.67 in 10.0 mi Calm Calm - N/A   Mostly Cloudy
6:15 PM 32.0 °F 28.7 °F 32.0 °F 100% 29.66 in 10.0 mi NNW 3.5 mph - N/A   Partly Cloudy
6:35 PM 32.0 °F 25.6 °F 32.0 °F 100% 29.66 in 10.0 mi NW 6.9 mph - N/A   Clear
6:55 PM 32.0 °F 27.5 °F 32.0 °F 100% 29.64 in 9.0 mi NNW 4.6 mph - N/A   Mostly Cloudy
7:15 PM 32.0 °F 25.6 °F 32.0 °F 100% 29.64 in 7.0 mi NNW 6.9 mph - N/A   Overcast
7:35 PM 32.0 °F 26.4 °F 32.0 °F 100% 29.64 in 7.0 mi NNW 5.8 mph - N/A   Overcast
7:55 PM 32.0 °F 26.4 °F 32.0 °F 100% 29.63 in 6.0 mi NNW 5.8 mph - N/A   Overcast
8:15 PM 32.0 °F 27.5 °F 32.0 °F 100% 29.62 in 7.0 mi NW 4.6 mph - N/A   Overcast
8:35 PM 32.0 °F 25.6 °F 32.0 °F 100% 29.62 in 7.0 mi NW 6.9 mph - N/A   Overcast
8:55 PM 32.0 °F 26.4 °F 32.0 °F 100% 29.61 in 8.0 mi NW 5.8 mph - N/A   Overcast
9:15 PM 32.0 °F 25.6 °F 32.0 °F 100% 29.60 in 7.0 mi NW 6.9 mph - N/A   Overcast
9:35 PM 32.0 °F 25.6 °F 32.0 °F 100% 29.59 in 5.0 mi NNW 6.9 mph - N/A   Overcast
9:55 PM 32.0 °F 25.6 °F 32.0 °F 100% 29.59 in 4.0 mi NNW 6.9 mph - N/A   Overcast
10:15 PM 32.0 °F 23.0 °F 32.0 °F 100% 29.60 in 3.0 mi NNW 11.5 mph - N/A   Overcast
10:35 PM 32.0 °F 22.1 °F 32.0 °F 100% 29.61 in 2.0 mi NNW 13.8 mph 19.6 mph N/A   Overcast
10:55 PM 32.0 °F 21.6 °F 32.0 °F 100% 29.60 in 3.0 mi North 15.0 mph 20.7 mph N/A   Overcast
11:15 PM 32.0 °F 21.2 °F 32.0 °F 100% 29.60 in 4.0 mi NNW 16.1 mph 20.7 mph N/A   Overcast
11:35 PM 32.0 °F 22.1 °F 32.0 °F 100% 29.60 in 4.0 mi NNW 13.8 mph - N/A   Overcast
11:55 PM 32.0 °F 23.0 °F 32.0 °F 100% 29.59 in 5.0 mi NNW 11.5 mph - N/A   Overcast